Date String (YYYY-MM-DD hh:mm:ss) UTC,Instrument flags,absolute air pressure of the measurement (hPa),sample flow rate (lpm),inlet stack bypass flow (lpm),air temperature of the measurement (°C),ambient temperature measured by the external sensor (°C),aerosol sample conditioner tube jacket temperature (°C),OPC LED temperature (°C),internal box temperature (°C),relative humidity of the measurement (%),span deviation,mass concentration of particles derived from Lorenz-Mie calculation of OPC scattering (μg/m³),mass concentration of particles derived from Lorenz-Mie calculation of OPC scattering (μg/m³),mass concentration of particles derived from Lorenz-Mie calculation of OPC scattering (μg/m³)
DateTimeUTC,F1_M11,P_M11,Q1_M11,Q2_M11,T1_M11,T2_M11,T3_M11,T4_M11,T5_M11,U1_M11,ZSPAN_M11,X0_M11,X2_M11,X1_M11
2023-09-13 10:00:00,SystemResetWarning,0831.1,5.00,000.00,029.1,027.8,000.0,037.4,030.8,21.1,0000.0,0008.02,0004.81,0004.40
2023-09-13 10:01:00,SystemResetWarning,0831.1,5.00,000.00,029.2,027.8,000.0,037.4,030.8,20.8,0000.0,0008.03,0004.82,0004.41
2023-09-13 10:02:00,SystemResetWarning,0831.1,5.00,000.00,029.2,027.9,000.0,037.4,030.8,20.8,0000.0,0008.03,0004.82,0004.42
2023-09-13 10:03:00,SystemResetWarning,0831.1,5.00,000.00,029.2,027.9,000.0,037.4,030.8,20.8,0000.0,0007.96,0004.80,0004.42
2023-09-13 10:04:00,SystemResetWarning,0831.1,5.00,000.00,029.2,027.9,000.0,037.5,030.8,20.9,0000.0,0008.06,0004.84,0004.44
2023-09-13 10:05:00,SystemResetWarning,0831.1,5.00,000.00,029.2,027.9,000.0,037.5,030.9,21.0,0000.0,0008.13,0004.87,0004.45
2023-09-13 10:06:00,SystemResetWarning,0831.2,4.99,000.00,029.2,027.9,000.0,037.5,030.8,21.0,0000.0,0008.15,0004.90,0004.48
2023-09-13 10:07:00,SystemResetWarning,0831.1,5.00,000.00,029.2,027.9,000.0,037.5,030.8,20.8,0000.0,0008.83,0004.94,0004.52
2023-09-13 10:08:00,SystemResetWarning,0831.1,5.00,000.00,029.2,027.9,000.0,037.5,030.8,20.7,0000.0,0010.57,0005.02,0004.56
2023-09-13 10:09:00,SystemResetWarning,0831.1,5.00,000.00,029.2,027.6,000.0,037.5,030.8,20.3,0000.4,0011.12,0005.10,0004.61
2023-09-13 10:10:00,SystemResetWarning,0831.1,5.00,000.00,029.2,025.8,000.0,037.4,030.4,20.3,-000.1,0011.27,0005.15,0004.65
2023-09-13 10:11:00,SystemResetWarning,0831.1,5.01,000.00,029.1,024.7,000.0,037.3,030.2,20.4,-000.3,0011.63,0005.16,0004.68
2023-09-13 10:12:00,SystemResetWarning,0831.0,5.01,000.00,029.0,024.6,000.0,037.3,030.1,20.8,-000.5,0013.29,0005.25,0004.70
2023-09-13 10:13:00,SystemResetWarning,0831.0,5.01,000.00,028.8,024.9,000.0,037.3,029.9,21.1,-001.0,0013.92,0005.33,0004.73
2023-09-13 10:14:00,SystemResetWarning,0831.0,4.99,000.00,028.7,025.3,000.0,037.3,029.8,21.3,-000.9,0014.77,0005.41,0004.76
2023-09-13 10:15:00,SystemResetWarning,0831.0,5.00,000.00,028.7,025.6,000.0,037.2,029.9,21.6,-000.3,0016.61,0005.47,0004.77
2023-09-13 10:16:00,SystemResetWarning,0831.1,5.01,000.00,028.6,026.0,000.0,037.2,029.9,21.8,0000.1,0017.30,0005.48,0004.78
2023-09-13 10:17:00,SystemResetWarning,0831.1,4.99,000.00,028.6,026.2,000.0,037.2,030.0,21.9,-000.3,0017.71,0005.50,0004.79
2023-09-13 10:18:00,SystemResetWarning,0831.1,4.99,000.00,028.6,026.5,000.0,037.2,030.0,21.8,-000.1,0017.54,0005.53,0004.79
2023-09-13 10:19:00,SystemResetWarning,0831.1,4.99,000.00,028.6,026.6,000.0,037.2,030.0,21.7,-000.2,0015.73,0005.52,0004.77
2023-09-13 10:20:00,SystemResetWarning,0831.1,5.01,000.00,028.6,026.8,000.0,037.1,030.0,21.8,0000.3,0015.41,0005.52,0004.76
2023-09-13 10:21:00,SystemResetWarning,0831.1,5.01,000.00,028.6,026.9,000.0,037.1,030.1,21.9,0001.1,0015.35,0005.52,0004.74
2023-09-13 10:22:00,SystemResetWarning,0831.1,5.00,000.00,028.6,027.0,000.0,037.1,030.2,22.0,0001.0,0015.21,0005.54,0004.73
2023-09-13 10:23:00,SystemResetWarning,0831.1,5.00,000.00,028.6,027.1,000.0,037.1,030.2,22.4,0000.9,0014.03,0005.50,0004.73
2023-09-13 10:24:00,SystemResetWarning,0831.1,5.01,000.00,028.7,027.2,000.0,037.1,030.3,23.0,0001.3,0014.99,0005.48,0004.73
2023-09-13 10:25:00,SystemResetWarning,0831.1,5.00,000.00,028.7,027.2,000.0,037.1,030.3,23.1,0001.2,0014.77,0005.46,0004.74
2023-09-13 10:26:00,SystemResetWarning,0831.1,4.99,000.00,028.7,027.3,000.0,037.1,030.3,23.0,0001.0,0013.07,0005.42,0004.74
2023-09-13 10:27:00,SystemResetWarning,0831.1,5.00,000.00,028.7,027.4,000.0,037.1,030.3,22.8,0000.3,0012.56,0005.42,0004.74
2023-09-13 10:28:00,SystemResetWarning,0831.1,4.99,000.00,028.7,027.4,000.0,037.1,030.4,23.3,0000.2,0012.82,0005.48,0004.75
2023-09-13 10:29:00,SystemResetWarning,0831.1,5.00,000.00,028.8,027.4,000.0,037.1,030.4,23.6,-000.0,0013.43,0005.53,0004.76
2023-09-13 10:30:00,SystemResetWarning,0831.1,5.00,000.00,028.8,027.5,000.0,037.1,030.4,23.5,0000.4,0013.54,0005.54,0004.78
2023-09-13 10:31:00,SystemResetWarning,0831.1,5.01,000.00,028.8,027.5,000.0,037.1,030.5,23.5,0000.4,0013.54,0005.57,0004.78
2023-09-13 10:32:00,SystemResetWarning,0831.1,5.01,000.00,028.8,027.5,000.0,037.1,030.5,23.5,0000.5,0014.08,0005.60,0004.80
2023-09-13 10:33:00,SystemResetWarning,0831.1,5.00,000.00,028.8,027.6,000.0,037.1,030.5,23.5,0000.8,0014.70,0005.59,0004.80
2023-09-13 10:34:00,SystemResetWarning,0831.1,5.00,000.00,028.8,027.6,000.0,037.1,030.5,23.3,0000.9,0014.65,0005.58,0004.80
2023-09-13 10:35:00,SystemResetWarning,0831.1,4.99,000.00,028.9,027.6,000.0,037.2,030.5,23.2,0000.7,0013.68,0005.58,0004.80
2023-09-13 10:36:00,SystemResetWarning,0831.1,5.00,000.00,028.9,027.6,000.0,037.2,030.5,23.5,0000.6,0013.25,0005.58,0004.81
2023-09-13 10:37:00,SystemResetWarning,0831.1,5.01,000.00,028.9,027.6,000.0,037.2,030.5,23.4,0000.3,0013.42,0005.61,0004.82
2023-09-13 10:38:00,SystemResetWarning,0831.1,5.01,000.00,028.9,027.6,000.0,037.2,030.6,23.2,0000.1,0013.75,0005.60,0004.82
2023-09-13 10:39:00,SystemResetWarning,0831.0,5.00,000.00,028.9,027.7,000.0,037.2,030.6,22.8,0000.5,0013.70,0005.64,0004.83
2023-09-13 10:40:00,SystemResetWarning,0831.0,5.00,000.00,028.9,027.7,000.0,037.2,030.6,22.8,0000.3,0013.73,0005.63,0004.83
2023-09-13 10:41:00,SystemResetWarning,0831.1,4.99,000.00,029.0,027.7,000.0,037.2,030.6,22.8,-000.3,0013.41,0005.62,0004.82
2023-09-13 10:42:00,SystemResetWarning,0831.1,4.99,000.00,029.0,027.7,000.0,037.3,030.6,23.1,-000.0,0013.39,0005.61,0004.82
2023-09-13 10:43:00,SystemResetWarning,0831.0,5.00,000.00,029.0,027.7,000.0,037.3,030.6,23.1,-000.3,0013.42,0005.60,0004.81
2023-09-13 10:44:00,SystemResetWarning,0831.1,5.00,000.00,029.0,027.7,000.0,037.3,030.6,23.1,-000.8,0012.74,0005.60,0004.81
2023-09-13 10:45:00,SystemResetWarning,0831.1,5.00,000.00,029.0,027.7,000.0,037.3,030.6,23.0,-000.7,0012.70,0005.59,0004.81
2023-09-13 10:46:00,SystemResetWarning,0831.0,5.00,000.00,029.0,027.8,000.0,037.3,030.7,23.2,-000.5,0013.09,0005.59,0004.81
2023-09-13 10:47:00,SystemResetWarning,0831.1,5.00,000.00,029.0,027.8,000.0,037.3,030.7,23.2,-000.5,0012.91,0005.57,0004.80
2023-09-13 10:48:00,SystemResetWarning,0831.1,5.00,000.00,029.1,027.8,000.0,037.3,030.7,23.3,-000.2,0013.59,0005.59,0004.80
2023-09-13 10:49:00,SystemResetWarning,0831.0,5.00,000.00,029.1,027.8,000.0,037.4,030.7,23.4,0000.0,0013.39,0005.64,0004.80
2023-09-13 10:50:00,SystemResetWarning,0831.1,5.00,000.00,029.1,027.8,000.0,037.4,030.8,23.6,-000.0,0013.21,0005.58,0004.80
2023-09-13 10:51:00,SystemResetWarning,0831.0,4.99,000.00,029.1,027.8,000.0,037.4,030.8,23.9,0000.2,0013.75,0005.59,0004.81
2023-09-13 10:52:00,SystemResetWarning,0831.0,5.00,000.00,029.1,027.9,000.0,037.4,030.8,23.9,0000.8,0014.17,0005.58,0004.83
2023-09-13 10:53:00,SystemResetWarning,0831.0,5.00,000.00,029.1,027.9,000.0,037.4,030.8,23.9,0000.8,0015.49,0005.59,0004.85
2023-09-13 10:54:00,SystemResetWarning,0831.1,4.99,000.00,029.1,027.9,000.0,037.4,030.8,24.0,0000.9,0016.00,0005.60,0004.86
2023-09-13 10:55:00,SystemResetWarning,0831.1,5.00,000.00,029.2,027.9,000.0,037.4,030.8,24.0,0001.2,0015.75,0005.60,0004.87
2023-09-13 10:56:00,SystemResetWarning,0831.1,5.01,000.00,029.2,027.9,000.0,037.4,030.8,23.9,0001.2,0015.65,0005.63,0004.90
2023-09-13 10:57:00,SystemResetWarning,0831.1,5.00,000.00,029.2,027.9,000.0,037.5,030.8,23.9,0001.0,0016.01,0005.68,0004.93
2023-09-13 10:58:00,SystemResetWarning,0831.2,5.00,000.00,029.2,027.9,000.0,037.5,030.9,23.9,0001.2,0015.81,0005.70,0004.96
2023-09-13 10:59:00,SystemResetWarning,0831.1,5.00,000.00,029.2,027.9,000.0,037.5,030.9,23.9,0000.7,0015.59,0005.77,0004.99
